Volver al catálogo

ISIS 1

ActivoCienciaPO
NORAD 3669·PAYLOAD·🇨🇦 Canada

Lanzado Jan 30, 1969 desde Vandenberg Space Force Base

Loading…

Próximos Pases (próximas 24 horas)

TLE

ActualizadoSource: Space-Track

Época: Sep 14, 2026, 09:55 UTC

1 03669U 69009A   26257.41347614  .00000168  00000-0  10374-3 0  9993
2 03669  88.4396 134.6037 1707945  68.1195 309.2329 11.30448969369855

Sigue ISIS 1 en tiempo real con AllMySat

Download on the App Store